Time,TemperatureF,DewpointF,PressureIn,WindDirection,WindDirectionDegrees,WindSpeedMPH,WindSpeedGustMPH,Humidity,HourlyPrecipIn,Conditions,Clouds,dailyrainin,SoftwareType,DateUTC
2013-02-05 00:00:00,23.9,20.3,29.77,West,262,0.0,0.0,86,0.00,,SKC,0.00,VWS V14.01,2013-02-05 05:00:00,
2013-02-05 00:01:00,23.9,20.3,29.77,West,262,0.0,0.0,86,0.00,,SKC,0.00,VWS V14.01,2013-02-05 05:01:00,
2013-02-05 00:06:00,23.8,20.2,29.77,West,262,0.0,0.0,86,0.00,,SKC,0.00,VWS V14.01,2013-02-05 05:06:00,
2013-02-05 00:11:00,23.8,20.2,29.77,West,262,0.0,0.0,86,0.00,,SKC,0.00,VWS V14.01,2013-02-05 05:11:00,
2013-02-05 00:16:00,23.8,20.2,29.76,West,262,0.0,0.0,86,0.00,,SKC,0.00,VWS V14.01,2013-02-05 05:16:00,
2013-02-05 00:21:00,23.8,20.5,29.76,West,262,0.0,0.0,87,0.00,,SKC,0.00,VWS V14.01,2013-02-05 05:21:00,
2013-02-05 00:26:00,23.9,20.6,29.76,West,262,0.0,0.0,87,0.00,,SKC,0.00,VWS V14.01,2013-02-05 05:26:00,
2013-02-05 00:31:00,23.9,20.6,29.76,West,262,0.0,0.0,87,0.00,,SKC,0.00,VWS V14.01,2013-02-05 05:31:00,
2013-02-05 00:36:00,23.9,20.6,29.76,West,262,0.0,0.0,87,0.00,,SKC,0.00,VWS V14.01,2013-02-05 05:36:00,
2013-02-05 00:42:00,23.9,20.6,29.76,West,262,0.0,0.0,87,0.00,,SKC,0.00,VWS V14.01,2013-02-05 05:42:00,
2013-02-05 00:47:00,23.9,20.6,29.76,West,262,0.0,0.0,87,0.00,,SKC,0.00,VWS V14.01,2013-02-05 05:47:00,
2013-02-05 00:52:00,23.9,20.6,29.76,West,262,0.0,0.0,87,0.00,,SKC,0.00,VWS V14.01,2013-02-05 05:52:00,
2013-02-05 00:57:00,23.9,20.6,29.76,West,262,0.0,0.0,87,0.00,,SKC,0.00,VWS V14.01,2013-02-05 05:57:00,
2013-02-05 01:00:00,23.9,20.6,29.76,West,262,0.0,0.0,87,0.00,,SKC,0.00,VWS V14.01,2013-02-05 06:00:00,
2013-02-05 01:02:00,23.9,20.6,29.76,West,262,0.0,0.0,87,0.00,,SKC,0.00,VWS V14.01,2013-02-05 06:02:00,
2013-02-05 01:07:00,23.9,20.6,29.76,West,262,0.0,0.0,87,0.00,,SKC,0.00,VWS V14.01,2013-02-05 06:07:00,
2013-02-05 01:12:00,23.8,20.5,29.76,West,262,0.0,0.0,87,0.00,,SKC,0.00,VWS V14.01,2013-02-05 06:12:00,
2013-02-05 01:17:00,23.8,20.5,29.76,West,262,0.0,0.0,87,0.00,,SKC,0.00,VWS V14.01,2013-02-05 06:17:00,
2013-02-05 01:22:00,23.8,20.5,29.76,West,262,0.0,0.0,87,0.00,,SKC,0.00,VWS V14.01,2013-02-05 06:22:00,
2013-02-05 01:27:00,23.8,20.5,29.76,West,262,0.0,0.0,87,0.00,,SKC,0.00,VWS V14.01,2013-02-05 06:27:00,
2013-02-05 01:32:00,23.8,20.5,29.77,West,262,0.0,0.0,87,0.00,,SKC,0.00,VWS V14.01,2013-02-05 06:32:00,
2013-02-05 01:38:00,23.8,20.5,29.77,West,262,0.0,0.0,87,0.00,,SKC,0.00,VWS V14.01,2013-02-05 06:38:00,
2013-02-05 01:43:00,23.9,20.6,29.77,West,262,0.0,0.0,87,0.00,,SKC,0.00,VWS V14.01,2013-02-05 06:43:00,
2013-02-05 01:48:00,23.9,20.6,29.77,West,262,0.0,0.0,87,0.00,,SKC,0.00,VWS V14.01,2013-02-05 06:48:00,
2013-02-05 01:53:00,24.1,20.8,29.77,West,262,0.0,0.0,87,0.00,,SKC,0.00,VWS V14.01,2013-02-05 06:53:00,
2013-02-05 01:58:00,24.1,20.8,29.77,West,262,0.0,0.0,87,0.00,,SKC,0.00,VWS V14.01,2013-02-05 06:58:00,
2013-02-05 02:00:00,24.1,20.8,29.78,West,262,0.0,0.0,87,0.00,,SKC,0.00,VWS V14.01,2013-02-05 07:00:00,
2013-02-05 02:03:00,24.1,20.8,29.78,West,262,0.0,0.0,87,0.00,,SKC,0.00,VWS V14.01,2013-02-05 07:03:00,
2013-02-05 02:08:00,24.1,20.8,29.78,West,262,0.0,0.0,87,0.00,,SKC,0.00,VWS V14.01,2013-02-05 07:08:00,
2013-02-05 02:13:00,23.9,20.6,29.78,West,262,0.0,0.0,87,0.00,,SKC,0.00,VWS V14.01,2013-02-05 07:13:00,
2013-02-05 02:18:00,23.9,20.6,29.78,West,262,0.0,0.0,87,0.00,,SKC,0.00,VWS V14.01,2013-02-05 07:18:00,
2013-02-05 02:24:00,23.9,20.6,29.78,West,262,0.0,0.0,87,0.00,,SKC,0.00,VWS V14.01,2013-02-05 07:24:00,
2013-02-05 02:29:00,23.9,20.9,29.78,West,262,0.0,0.0,88,0.00,,SKC,0.00,VWS V14.01,2013-02-05 07:29:00,
2013-02-05 02:34:00,23.9,20.6,29.77,West,262,0.0,0.0,87,0.00,,SKC,0.00,VWS V14.01,2013-02-05 07:34:00,
2013-02-05 02:39:00,23.9,20.9,29.77,West,262,0.0,0.0,88,0.00,,SKC,0.00,VWS V14.01,2013-02-05 07:39:00,
2013-02-05 02:44:00,23.9,20.9,29.77,West,262,0.0,0.0,88,0.00,,SKC,0.00,VWS V14.01,2013-02-05 07:44:00,
2013-02-05 02:49:00,23.9,20.9,29.78,West,262,0.0,0.0,88,0.00,,SKC,0.00,VWS V14.01,2013-02-05 07:49:00,
2013-02-05 02:54:00,23.9,20.9,29.78,West,262,0.0,0.0,88,0.00,,SKC,0.00,VWS V14.01,2013-02-05 07:54:00,
2013-02-05 02:59:00,23.9,20.9,29.78,West,262,0.0,0.0,88,0.00,,SKC,0.00,VWS V14.01,2013-02-05 07:59:00,
2013-02-05 03:00:00,23.9,20.9,29.78,West,262,0.0,0.0,88,0.00,,SKC,0.00,VWS V14.01,2013-02-05 08:00:00,
2013-02-05 03:04:00,23.9,20.9,29.78,West,262,0.0,0.0,88,0.00,,SKC,0.00,VWS V14.01,2013-02-05 08:04:00,
2013-02-05 03:09:00,24.1,21.1,29.78,West,262,0.0,0.0,88,0.00,,SKC,0.00,VWS V14.01,2013-02-05 08:09:00,
2013-02-05 03:14:00,24.1,21.1,29.78,West,262,0.0,0.0,88,0.00,,SKC,0.00,VWS V14.01,2013-02-05 08:14:00,
2013-02-05 03:19:00,23.9,20.9,29.78,West,262,0.0,0.0,88,0.00,,SKC,0.00,VWS V14.01,2013-02-05 08:19:00,
2013-02-05 03:25:00,24.1,21.1,29.78,West,262,0.0,0.0,88,0.00,,SKC,0.00,VWS V14.01,2013-02-05 08:25:00,
2013-02-05 03:30:00,24.1,21.1,29.77,West,262,0.0,0.0,88,0.00,,SKC,0.00,VWS V14.01,2013-02-05 08:30:00,
2013-02-05 03:35:00,23.9,20.9,29.77,West,262,0.0,0.0,88,0.00,,SKC,0.00,VWS V14.01,2013-02-05 08:35:00,
2013-02-05 03:41:00,23.9,20.9,29.77,West,262,0.0,0.0,88,0.00,,SKC,0.00,VWS V14.01,2013-02-05 08:41:00,
2013-02-05 03:46:00,23.9,21.1,29.77,West,262,0.0,0.0,89,0.00,,SKC,0.00,VWS V14.01,2013-02-05 08:46:00,
2013-02-05 03:51:00,24.1,21.3,29.77,West,262,0.0,0.0,89,0.00,,SKC,0.00,VWS V14.01,2013-02-05 08:51:00,
2013-02-05 03:56:00,24.1,21.3,29.77,West,262,0.0,0.0,89,0.00,,SKC,0.00,VWS V14.01,2013-02-05 08:56:00,
2013-02-05 04:00:00,24.1,21.3,29.78,West,262,0.0,0.0,89,0.00,,SKC,0.00,VWS V14.01,2013-02-05 09:00:00,
2013-02-05 04:01:00,24.1,21.3,29.78,West,262,0.0,0.0,89,0.00,,SKC,0.00,VWS V14.01,2013-02-05 09:01:00,
2013-02-05 04:06:00,24.1,21.3,29.78,West,262,0.0,0.0,89,0.00,,SKC,0.00,VWS V14.01,2013-02-05 09:06:00,
2013-02-05 04:11:00,24.1,21.3,29.78,West,262,0.0,0.0,89,0.00,,SKC,0.00,VWS V14.01,2013-02-05 09:11:00,
2013-02-05 04:16:00,24.1,21.3,29.78,West,262,0.0,0.0,89,0.00,,SKC,0.00,VWS V14.01,2013-02-05 09:16:00,
2013-02-05 04:21:00,24.1,21.3,29.78,West,262,0.0,0.0,89,0.00,,SKC,0.00,VWS V14.01,2013-02-05 09:21:00,
2013-02-05 04:26:00,24.1,21.3,29.78,West,262,0.0,0.0,89,0.00,,SKC,0.00,VWS V14.01,2013-02-05 09:26:00,
2013-02-05 04:31:00,24.2,21.4,29.78,West,262,0.0,0.0,89,0.00,,SKC,0.00,VWS V14.01,2013-02-05 09:31:00,
2013-02-05 04:36:00,24.2,21.4,29.78,West,262,0.0,0.0,89,0.00,,SKC,0.00,VWS V14.01,2013-02-05 09:36:00,
2013-02-05 04:41:00,24.1,21.3,29.78,West,262,0.0,0.0,89,0.00,,SKC,0.00,VWS V14.01,2013-02-05 09:41:00,
2013-02-05 04:47:00,24.1,21.3,29.78,West,262,0.0,0.0,89,0.00,,SKC,0.00,VWS V14.01,2013-02-05 09:47:00,
2013-02-05 04:52:00,24.1,21.3,29.78,West,262,0.0,0.0,89,0.00,,SKC,0.00,VWS V14.01,2013-02-05 09:52:00,
2013-02-05 04:57:00,24.1,21.3,29.78,West,262,0.0,0.0,89,0.00,,SKC,0.00,VWS V14.01,2013-02-05 09:57:00,
2013-02-05 05:00:00,24.1,21.3,29.79,West,262,0.0,0.0,89,0.00,,SKC,0.00,VWS V14.01,2013-02-05 10:00:00,
2013-02-05 05:02:00,24.1,21.3,29.79,West,262,0.0,0.0,89,0.00,,SKC,0.00,VWS V14.01,2013-02-05 10:02:00,
2013-02-05 05:07:00,24.1,21.3,29.79,West,262,0.0,0.0,89,0.00,,SKC,0.00,VWS V14.01,2013-02-05 10:07:00,
2013-02-05 05:12:00,24.1,21.3,29.79,West,262,0.0,0.0,89,0.00,,SKC,0.00,VWS V14.01,2013-02-05 10:12:00,
2013-02-05 05:17:00,24.1,21.3,29.80,West,262,0.0,0.0,89,0.00,,SKC,0.00,VWS V14.01,2013-02-05 10:17:00,
2013-02-05 05:22:00,24.1,21.3,29.80,West,262,0.0,0.0,89,0.00,,SKC,0.00,VWS V14.01,2013-02-05 10:22:00,
2013-02-05 05:28:00,24.1,21.3,29.80,West,262,0.0,0.0,89,0.00,,SKC,0.00,VWS V14.01,2013-02-05 10:28:00,
2013-02-05 05:33:00,24.1,21.3,29.78,West,262,0.0,0.0,89,0.00,,SKC,0.00,VWS V14.01,2013-02-05 10:33:00,
2013-02-05 05:38:00,23.9,21.1,29.78,West,262,0.0,0.0,89,0.00,,SKC,0.00,VWS V14.01,2013-02-05 10:38:00,
2013-02-05 05:43:00,23.9,21.1,29.78,West,262,0.0,0.0,89,0.00,,SKC,0.00,VWS V14.01,2013-02-05 10:43:00,
2013-02-05 05:48:00,23.9,21.1,29.78,West,262,0.0,0.0,89,0.00,,SKC,0.00,VWS V14.01,2013-02-05 10:48:00,
2013-02-05 05:53:00,23.8,21.0,29.78,West,262,0.0,0.0,89,0.00,,SKC,0.00,VWS V14.01,2013-02-05 10:53:00,
2013-02-05 05:58:00,23.8,21.0,29.78,West,262,0.0,0.0,89,0.00,,SKC,0.00,VWS V14.01,2013-02-05 10:58:00,
2013-02-05 06:00:00,23.8,21.0,29.78,West,262,0.0,0.0,89,0.00,,SKC,0.00,VWS V14.01,2013-02-05 11:00:00,
2013-02-05 06:03:00,23.8,21.0,29.78,West,262,0.0,0.0,89,0.00,,SKC,0.00,VWS V14.01,2013-02-05 11:03:00,
2013-02-05 06:08:00,23.8,21.0,29.78,West,262,0.0,0.0,89,0.00,,SKC,0.00,VWS V14.01,2013-02-05 11:08:00,
2013-02-05 06:13:00,23.6,20.8,29.78,West,262,0.0,0.0,89,0.00,,SKC,0.00,VWS V14.01,2013-02-05 11:13:00,
2013-02-05 06:18:00,23.6,20.8,29.78,West,262,0.0,0.0,89,0.00,,SKC,0.00,VWS V14.01,2013-02-05 11:18:00,
2013-02-05 06:23:00,23.6,20.8,29.78,West,262,0.0,0.0,89,0.00,,SKC,0.00,VWS V14.01,2013-02-05 11:23:00,
2013-02-05 06:29:00,23.6,20.8,29.78,West,262,0.0,0.0,89,0.00,,SKC,0.00,VWS V14.01,2013-02-05 11:29:00,
2013-02-05 06:34:00,23.6,20.8,29.78,West,262,0.0,0.0,89,0.00,,SKC,0.00,VWS V14.01,2013-02-05 11:34:00,
2013-02-05 06:39:00,23.5,20.7,29.78,West,262,0.0,0.0,89,0.00,,SKC,0.00,VWS V14.01,2013-02-05 11:39:00,
2013-02-05 06:44:00,23.5,20.7,29.78,West,262,0.0,0.0,89,0.00,,SKC,0.00,VWS V14.01,2013-02-05 11:44:00,
2013-02-05 06:49:00,23.3,20.3,29.77,West,262,0.0,0.0,88,0.00,,SKC,0.00,VWS V14.01,2013-02-05 11:49:00,
2013-02-05 06:54:00,23.3,20.3,29.77,West,262,0.0,0.0,88,0.00,,SKC,0.00,VWS V14.01,2013-02-05 11:54:00,
2013-02-05 06:59:00,23.3,20.3,29.77,West,262,0.0,0.0,88,0.00,,SKC,0.00,VWS V14.01,2013-02-05 11:59:00,
2013-02-05 07:00:00,23.3,20.3,29.78,West,262,0.0,0.0,88,0.00,,SKC,0.00,VWS V14.01,2013-02-05 12:00:00,
2013-02-05 07:04:00,23.3,20.3,29.78,West,262,0.0,0.0,88,0.00,,SKC,0.00,VWS V14.01,2013-02-05 12:04:00,
2013-02-05 07:10:00,23.3,20.3,29.78,West,262,0.0,0.0,88,0.00,,SKC,0.00,VWS V14.01,2013-02-05 12:10:00,
2013-02-05 07:15:00,23.3,20.3,29.78,West,262,0.0,0.0,88,0.00,,SKC,0.00,VWS V14.01,2013-02-05 12:15:00,
2013-02-05 07:20:00,23.2,20.2,29.78,West,262,0.0,0.0,88,0.00,,SKC,0.00,VWS V14.01,2013-02-05 12:20:00,
2013-02-05 07:25:00,23.2,20.2,29.78,West,262,0.0,0.0,88,0.00,,SKC,0.00,VWS V14.01,2013-02-05 12:25:00,
2013-02-05 07:30:00,23.2,20.2,29.78,West,262,0.0,0.0,88,0.00,,SKC,0.00,VWS V14.01,2013-02-05 12:30:00,
2013-02-05 07:35:00,23.2,20.2,29.78,West,262,0.0,0.0,88,0.00,,SKC,0.00,VWS V14.01,2013-02-05 12:35:00,
2013-02-05 07:40:00,23.3,20.3,29.78,West,262,0.0,0.0,88,0.00,,SKC,0.00,VWS V14.01,2013-02-05 12:40:00,
2013-02-05 07:45:00,23.3,20.3,29.79,West,262,0.0,0.0,88,0.00,,SKC,0.00,VWS V14.01,2013-02-05 12:45:00,
2013-02-05 07:50:00,23.3,20.3,29.79,West,262,0.0,0.0,88,0.00,,SKC,0.00,VWS V14.01,2013-02-05 12:50:00,
2013-02-05 07:55:00,23.3,20.3,29.79,West,262,0.0,0.0,88,0.00,,SKC,0.00,VWS V14.01,2013-02-05 12:55:00,
2013-02-05 08:00:00,23.5,20.5,29.80,West,262,0.0,0.0,88,0.00,,SKC,0.00,VWS V14.01,2013-02-05 13:00:00,
2013-02-05 08:05:00,23.5,20.5,29.80,West,262,0.0,0.0,88,0.00,,SKC,0.00,VWS V14.01,2013-02-05 13:05:00,
2013-02-05 08:10:00,23.5,20.5,29.80,West,262,0.0,0.0,88,0.00,,SKC,0.00,VWS V14.01,2013-02-05 13:10:00,
2013-02-05 08:15:00,23.6,20.6,29.80,West,262,0.0,0.0,88,0.00,,SKC,0.00,VWS V14.01,2013-02-05 13:15:00,
2013-02-05 08:20:00,23.6,20.6,29.80,West,262,0.0,0.0,88,0.00,,SKC,0.00,VWS V14.01,2013-02-05 13:20:00,
2013-02-05 08:26:00,23.6,20.6,29.80,West,262,0.0,0.0,88,0.00,,SKC,0.00,VWS V14.01,2013-02-05 13:26:00,
2013-02-05 08:31:00,23.6,20.6,29.80,West,262,0.0,0.0,88,0.00,,SKC,0.00,VWS V14.01,2013-02-05 13:31:00,
2013-02-05 08:36:00,23.8,20.8,29.80,West,262,0.0,0.0,88,0.00,,SKC,0.00,VWS V14.01,2013-02-05 13:36:00,
2013-02-05 08:41:00,23.8,20.8,29.80,West,262,0.0,0.0,88,0.00,,SKC,0.00,VWS V14.01,2013-02-05 13:41:00,
2013-02-05 08:46:00,23.9,20.9,29.80,West,262,0.0,0.0,88,0.00,,SKC,0.00,VWS V14.01,2013-02-05 13:46:00,
2013-02-05 08:51:00,23.9,20.9,29.80,West,262,0.0,0.0,88,0.00,,SKC,0.00,VWS V14.01,2013-02-05 13:51:00,
2013-02-05 08:56:00,23.9,20.9,29.80,West,262,0.0,0.0,88,0.00,,SKC,0.00,VWS V14.01,2013-02-05 13:56:00,
2013-02-05 09:00:00,24.1,21.1,29.80,West,262,0.0,0.0,88,0.00,,SKC,0.00,VWS V14.01,2013-02-05 14:00:00,
2013-02-05 09:01:00,24.1,21.1,29.80,West,262,0.0,0.0,88,0.00,,SKC,0.00,VWS V14.01,2013-02-05 14:01:00,
2013-02-05 09:06:00,24.2,21.2,29.80,West,262,0.0,0.0,88,0.00,,SKC,0.00,VWS V14.01,2013-02-05 14:06:00,
2013-02-05 09:11:00,24.4,21.4,29.80,West,262,0.0,0.0,88,0.00,,SKC,0.00,VWS V14.01,2013-02-05 14:11:00,
2013-02-05 09:16:00,24.5,21.5,29.80,West,262,0.0,0.0,88,0.00,,SKC,0.00,VWS V14.01,2013-02-05 14:16:00,
2013-02-05 09:22:00,24.7,21.7,29.80,West,262,0.0,0.0,88,0.00,,SKC,0.00,VWS V14.01,2013-02-05 14:22:00,
2013-02-05 09:27:00,24.7,21.4,29.80,West,262,0.0,0.0,87,0.00,,SKC,0.00,VWS V14.01,2013-02-05 14:27:00,
2013-02-05 09:32:00,24.7,21.4,29.80,West,262,0.0,0.0,87,0.00,,SKC,0.00,VWS V14.01,2013-02-05 14:32:00,
2013-02-05 09:37:00,24.7,21.4,29.80,West,262,0.0,0.0,87,0.00,,SKC,0.00,VWS V14.01,2013-02-05 14:37:00,
2013-02-05 09:42:00,24.7,21.4,29.80,West,262,0.0,0.0,87,0.00,,SKC,0.00,VWS V14.01,2013-02-05 14:42:00,
2013-02-05 09:47:00,24.7,21.4,29.81,West,262,0.0,0.0,87,0.00,,SKC,0.00,VWS V14.01,2013-02-05 14:47:00,
2013-02-05 09:52:00,24.7,21.4,29.81,West,262,0.0,0.0,87,0.00,,SKC,0.00,VWS V14.01,2013-02-05 14:52:00,
2013-02-05 09:57:00,24.5,21.2,29.81,West,262,0.0,0.0,87,0.00,,SKC,0.00,VWS V14.01,2013-02-05 14:57:00,
2013-02-05 10:00:00,24.5,21.2,29.80,West,262,0.0,0.0,87,0.00,,SKC,0.00,VWS V14.01,2013-02-05 15:00:00,
2013-02-05 10:02:00,24.7,21.4,29.80,West,262,0.0,0.0,87,0.00,,SKC,0.00,VWS V14.01,2013-02-05 15:02:00,
2013-02-05 10:07:00,24.7,21.4,29.80,West,262,0.0,0.0,87,0.00,,SKC,0.00,VWS V14.01,2013-02-05 15:07:00,
2013-02-05 10:12:00,24.8,21.5,29.80,West,262,0.0,0.0,87,0.00,,SKC,0.00,VWS V14.01,2013-02-05 15:12:00,
2013-02-05 10:17:00,25.1,21.8,29.80,West,262,0.0,0.0,87,0.00,,SKC,0.00,VWS V14.01,2013-02-05 15:17:00,
2013-02-05 10:22:00,25.3,22.0,29.80,West,262,0.0,0.0,87,0.00,,SKC,0.00,VWS V14.01,2013-02-05 15:22:00,
2013-02-05 10:27:00,25.3,21.7,29.80,West,262,0.0,0.0,86,0.00,,SKC,0.00,VWS V14.01,2013-02-05 15:27:00,
2013-02-05 10:32:00,25.3,21.7,29.80,West,262,0.0,0.0,86,0.00,,SKC,0.00,VWS V14.01,2013-02-05 15:32:00,
2013-02-05 10:38:00,25.4,21.8,29.80,West,262,0.0,0.0,86,0.00,,SKC,0.00,VWS V14.01,2013-02-05 15:38:00,
2013-02-05 10:43:00,25.4,21.8,29.80,West,262,0.0,0.0,86,0.00,,SKC,0.00,VWS V14.01,2013-02-05 15:43:00,
2013-02-05 10:48:00,25.6,22.0,29.80,West,262,0.0,0.0,86,0.00,,SKC,0.00,VWS V14.01,2013-02-05 15:48:00,
2013-02-05 10:53:00,25.7,22.1,29.80,West,262,0.0,0.0,86,0.00,,SKC,0.00,VWS V14.01,2013-02-05 15:53:00,
2013-02-05 10:58:00,26.0,22.4,29.80,West,262,0.0,0.0,86,0.00,,SKC,0.00,VWS V14.01,2013-02-05 15:58:00,
2013-02-05 11:00:00,26.1,22.5,29.80,West,262,0.0,0.0,86,0.00,,SKC,0.00,VWS V14.01,2013-02-05 16:00:00,
2013-02-05 11:03:00,26.3,22.7,29.80,West,262,0.0,0.0,86,0.00,,SKC,0.00,VWS V14.01,2013-02-05 16:03:00,
2013-02-05 11:08:00,26.1,22.2,29.80,West,262,0.0,0.0,85,0.00,,SKC,0.00,VWS V14.01,2013-02-05 16:08:00,
2013-02-05 11:13:00,26.3,22.4,29.80,West,262,0.0,0.0,85,0.00,,SKC,0.00,VWS V14.01,2013-02-05 16:13:00,
2013-02-05 11:18:00,26.1,22.2,29.79,West,262,0.0,0.0,85,0.00,,SKC,0.00,VWS V14.01,2013-02-05 16:18:00,
2013-02-05 11:23:00,26.1,22.2,29.79,West,262,0.0,0.0,85,0.00,,SKC,0.00,VWS V14.01,2013-02-05 16:23:00,
2013-02-05 11:28:00,26.3,22.4,29.79,West,262,0.0,0.0,85,0.00,,SKC,0.00,VWS V14.01,2013-02-05 16:28:00,
2013-02-05 11:33:00,26.4,22.5,29.81,West,262,0.0,0.0,85,0.00,,SKC,0.00,VWS V14.01,2013-02-05 16:33:00,
2013-02-05 11:38:00,26.6,22.7,29.81,West,262,0.0,0.0,85,0.00,,SKC,0.00,VWS V14.01,2013-02-05 16:38:00,
2013-02-05 11:43:00,26.7,22.8,29.81,West,262,0.0,0.0,85,0.00,,SKC,0.00,VWS V14.01,2013-02-05 16:43:00,
2013-02-05 11:49:00,27.2,23.0,29.79,West,262,0.0,0.0,84,0.00,,SKC,0.00,VWS V14.01,2013-02-05 16:49:00,
2013-02-05 11:54:00,27.0,22.5,29.79,West,262,1.0,6.0,83,0.00,,SKC,0.00,VWS V14.01,2013-02-05 16:54:00,
2013-02-05 11:59:00,26.7,22.2,29.79,West,262,2.0,6.0,83,0.00,,SKC,0.00,VWS V14.01,2013-02-05 16:59:00,
2013-02-05 12:00:00,26.6,22.1,29.79,East,82,6.0,6.0,83,0.00,,SKC,0.00,VWS V14.01,2013-02-05 17:00:00,
2013-02-05 12:04:00,26.6,22.1,29.79,ENE,61,2.0,6.0,83,0.00,,SKC,0.00,VWS V14.01,2013-02-05 17:04:00,
2013-02-05 12:09:00,26.4,22.0,29.79,ENE,61,0.0,6.0,83,0.00,,SKC,0.00,VWS V14.01,2013-02-05 17:09:00,
2013-02-05 12:14:00,26.3,21.9,29.79,NE,47,0.0,6.0,83,0.00,,SKC,0.00,VWS V14.01,2013-02-05 17:14:00,
2013-02-05 12:19:00,26.1,21.6,29.78,NE,47,0.0,6.0,83,0.00,,SKC,0.00,VWS V14.01,2013-02-05 17:19:00,
2013-02-05 12:24:00,26.0,21.6,29.78,NE,47,4.0,6.0,83,0.00,,SKC,0.00,VWS V14.01,2013-02-05 17:24:00,
2013-02-05 12:29:00,25.8,21.4,29.78,NE,47,3.0,6.0,83,0.00,,SKC,0.00,VWS V14.01,2013-02-05 17:29:00,
2013-02-05 12:34:00,25.7,21.3,29.78,NE,48,0.0,6.0,83,0.00,,SKC,0.00,VWS V14.01,2013-02-05 17:34:00,
2013-02-05 12:39:00,25.6,21.2,29.78,NE,48,6.0,6.0,83,0.00,,SKC,0.00,VWS V14.01,2013-02-05 17:39:00,
2013-02-05 12:44:00,25.4,21.0,29.78,ENE,62,0.0,8.0,83,0.00,,SKC,0.00,VWS V14.01,2013-02-05 17:44:00,
2013-02-05 12:49:00,25.4,21.2,29.78,ENE,63,3.0,8.0,84,0.00,,SKC,0.00,VWS V14.01,2013-02-05 17:49:00,
2013-02-05 12:55:00,25.3,20.9,29.78,ENE,63,4.0,8.0,83,0.00,,SKC,0.00,VWS V14.01,2013-02-05 17:55:00,
2013-02-05 13:00:00,25.3,20.9,29.77,ENE,63,0.0,8.0,83,0.00,,SKC,0.00,VWS V14.01,2013-02-05 18:00:00,
2013-02-05 13:05:00,25.3,20.9,29.77,ENE,63,0.0,6.0,83,0.00,,SKC,0.00,VWS V14.01,2013-02-05 18:05:00,
2013-02-05 13:10:00,25.3,20.6,29.77,ENE,61,6.0,7.0,82,0.00,,SKC,0.00,VWS V14.01,2013-02-05 18:10:00,
2013-02-05 13:15:00,25.3,20.6,29.76,ENE,61,1.0,7.0,82,0.00,,SKC,0.00,VWS V14.01,2013-02-05 18:15:00,
2013-02-05 13:20:00,25.4,20.7,29.76,ENE,61,2.0,7.0,82,0.00,,SKC,0.00,VWS V14.01,2013-02-05 18:20:00,
2013-02-05 13:25:00,25.4,20.4,29.76,ENE,61,0.0,7.0,81,0.00,,SKC,0.00,VWS V14.01,2013-02-05 18:25:00,
2013-02-05 13:30:00,25.7,20.7,29.75,ENE,61,1.0,7.0,81,0.00,,SKC,0.00,VWS V14.01,2013-02-05 18:30:00,
2013-02-05 13:35:00,25.7,20.7,29.75,ENE,61,1.0,7.0,81,0.00,,SKC,0.00,VWS V14.01,2013-02-05 18:35:00,
2013-02-05 13:40:00,25.8,20.8,29.75,ENE,61,0.0,7.0,81,0.00,,SKC,0.00,VWS V14.01,2013-02-05 18:40:00,
2013-02-05 13:45:00,26.0,21.0,29.76,ENE,61,0.0,7.0,81,0.00,,SKC,0.00,VWS V14.01,2013-02-05 18:45:00,
2013-02-05 13:50:00,26.1,20.8,29.76,ENE,61,0.0,7.0,80,0.00,,SKC,0.00,VWS V14.01,2013-02-05 18:50:00,
2013-02-05 13:55:00,26.4,20.8,29.76,ENE,61,0.0,7.0,79,0.00,,SKC,0.00,VWS V14.01,2013-02-05 18:55:00,
2013-02-05 14:00:00,26.6,21.0,29.76,ENE,61,0.0,0.0,79,0.00,,SKC,0.00,VWS V14.01,2013-02-05 19:00:00,
2013-02-05 14:05:00,26.9,21.0,29.76,North,9,0.0,4.0,78,0.00,,SKC,0.00,VWS V14.01,2013-02-05 19:05:00,
2013-02-05 14:10:00,26.7,20.5,29.76,North,5,0.0,9.0,77,0.01,,SKC,0.01,VWS V14.01,2013-02-05 19:10:00,
2013-02-05 14:15:00,26.6,20.1,29.75,North,5,0.0,9.0,76,0.01,,SKC,0.01,VWS V14.01,2013-02-05 19:15:00,
2013-02-05 14:20:00,26.6,20.1,29.75,North,5,2.0,9.0,76,0.01,,SKC,0.01,VWS V14.01,2013-02-05 19:20:00,
2013-02-05 14:25:00,26.4,19.9,29.75,NE,46,1.0,9.0,76,0.01,,SKC,0.01,VWS V14.01,2013-02-05 19:25:00,
2013-02-05 14:30:00,26.4,19.9,29.76,NE,46,0.0,9.0,76,0.01,,SKC,0.01,VWS V14.01,2013-02-05 19:30:00,
2013-02-05 14:36:00,26.4,19.9,29.76,NE,46,0.0,9.0,76,0.01,,SKC,0.01,VWS V14.01,2013-02-05 19:36:00,
2013-02-05 14:41:00,26.6,20.1,29.76,NE,46,4.0,9.0,76,0.01,,SKC,0.01,VWS V14.01,2013-02-05 19:41:00,
2013-02-05 14:46:00,26.7,19.9,29.76,NE,46,0.0,9.0,75,0.01,,SKC,0.01,VWS V14.01,2013-02-05 19:46:00,
2013-02-05 14:51:00,27.0,20.1,29.76,East,80,7.0,9.0,75,0.01,,SKC,0.01,VWS V14.01,2013-02-05 19:51:00,
2013-02-05 14:56:00,27.0,20.1,29.76,NNE,32,0.0,9.0,75,0.01,,SKC,0.01,VWS V14.01,2013-02-05 19:56:00,
2013-02-05 15:00:00,27.0,19.8,29.76,NNE,20,1.0,9.0,74,0.01,,SKC,0.01,VWS V14.01,2013-02-05 20:00:00,
2013-02-05 15:01:00,27.0,19.8,29.76,NNE,24,4.0,4.0,74,0.01,,SKC,0.01,VWS V14.01,2013-02-05 20:01:00,
2013-02-05 15:06:00,27.0,19.8,29.76,ENE,57,1.0,9.0,74,0.01,,SKC,0.01,VWS V14.01,2013-02-05 20:06:00,
2013-02-05 15:11:00,26.9,19.7,29.76,ENE,58,0.0,9.0,74,0.01,,SKC,0.01,VWS V14.01,2013-02-05 20:11:00,
2013-02-05 15:16:00,26.9,19.7,29.76,ENE,58,0.0,9.0,74,0.01,,SKC,0.01,VWS V14.01,2013-02-05 20:16:00,
2013-02-05 15:21:00,26.9,19.4,29.76,NE,41,0.0,9.0,73,0.01,,SKC,0.01,VWS V14.01,2013-02-05 20:21:00,
2013-02-05 15:26:00,27.0,19.5,29.76,NE,42,0.0,9.0,73,0.01,,SKC,0.01,VWS V14.01,2013-02-05 20:26:00,
2013-02-05 15:31:00,27.2,19.7,29.77,NW,325,4.0,9.0,73,0.01,,SKC,0.01,VWS V14.01,2013-02-05 20:31:00,
2013-02-05 15:36:00,27.5,19.7,29.77,NNE,31,0.0,9.0,72,0.01,,SKC,0.01,VWS V14.01,2013-02-05 20:36:00,
2013-02-05 15:41:00,27.8,20.0,29.77,NNE,31,0.0,9.0,72,0.01,,SKC,0.01,VWS V14.01,2013-02-05 20:41:00,
2013-02-05 15:47:00,27.6,19.4,29.77,NNW,336,1.0,9.0,71,0.01,,SKC,0.01,VWS V14.01,2013-02-05 20:47:00,
2013-02-05 15:52:00,27.5,19.4,29.77,NNW,336,2.0,9.0,71,0.01,,SKC,0.01,VWS V14.01,2013-02-05 20:52:00,
2013-02-05 15:57:00,27.6,19.1,29.77,NNW,337,0.0,9.0,70,0.01,,SKC,0.01,VWS V14.01,2013-02-05 20:57:00,
2013-02-05 16:00:00,27.5,19.0,29.78,NNE,27,7.0,9.0,70,0.01,,SKC,0.01,VWS V14.01,2013-02-05 21:00:00,
2013-02-05 16:02:00,27.5,19.0,29.78,NW,305,0.0,7.0,70,0.00,,SKC,0.01,VWS V14.01,2013-02-05 21:02:00,
2013-02-05 16:07:00,27.3,18.8,29.78,NNE,29,0.0,7.0,70,0.00,,SKC,0.01,VWS V14.01,2013-02-05 21:07:00,
2013-02-05 16:12:00,27.3,18.8,29.78,NNE,29,0.0,7.0,70,0.00,,SKC,0.01,VWS V14.01,2013-02-05 21:12:00,
2013-02-05 16:17:00,27.2,18.7,29.78,NE,45,0.0,7.0,70,0.00,,SKC,0.01,VWS V14.01,2013-02-05 21:17:00,
2013-02-05 16:22:00,27.2,18.7,29.78,NE,45,0.0,7.0,70,0.00,,SKC,0.01,VWS V14.01,2013-02-05 21:22:00,
2013-02-05 16:27:00,27.0,18.5,29.78,NE,45,0.0,7.0,70,0.00,,SKC,0.01,VWS V14.01,2013-02-05 21:27:00,
2013-02-05 16:32:00,27.0,18.5,29.77,NE,45,0.0,7.0,70,0.00,,SKC,0.01,VWS V14.01,2013-02-05 21:32:00,
2013-02-05 16:37:00,26.9,18.8,29.77,NE,45,0.0,7.0,71,0.00,,SKC,0.01,VWS V14.01,2013-02-05 21:37:00,
2013-02-05 16:42:00,26.7,18.6,29.77,NE,45,0.0,7.0,71,0.00,,SKC,0.01,VWS V14.01,2013-02-05 21:42:00,
2013-02-05 16:47:00,26.6,18.5,29.77,NE,45,0.0,7.0,71,0.00,,SKC,0.01,VWS V14.01,2013-02-05 21:47:00,
2013-02-05 16:53:00,26.6,18.8,29.77,NE,45,0.0,7.0,72,0.00,,SKC,0.01,VWS V14.01,2013-02-05 21:53:00,
2013-02-05 16:58:00,26.4,18.6,29.77,NE,45,0.0,7.0,72,0.00,,SKC,0.01,VWS V14.01,2013-02-05 21:58:00,
2013-02-05 17:00:00,26.4,18.6,29.77,NE,45,0.0,7.0,72,0.00,,SKC,0.01,VWS V14.01,2013-02-05 22:00:00,
2013-02-05 17:03:00,26.3,18.5,29.77,NE,45,0.0,0.0,72,0.00,,SKC,0.01,VWS V14.01,2013-02-05 22:03:00,
2013-02-05 17:08:00,26.3,18.5,29.77,NE,45,0.0,0.0,72,0.00,,SKC,0.01,VWS V14.01,2013-02-05 22:08:00,
2013-02-05 17:13:00,26.3,18.5,29.77,NE,45,0.0,0.0,72,0.00,,SKC,0.01,VWS V14.01,2013-02-05 22:13:00,
2013-02-05 17:18:00,26.3,18.5,29.77,NE,45,0.0,6.0,72,0.00,,SKC,0.01,VWS V14.01,2013-02-05 22:18:00,
2013-02-05 17:23:00,26.3,18.2,29.77,NE,45,0.0,6.0,71,0.00,,SKC,0.01,VWS V14.01,2013-02-05 22:23:00,
2013-02-05 17:28:00,26.4,18.0,29.77,NE,45,0.0,6.0,70,0.00,,SKC,0.01,VWS V14.01,2013-02-05 22:28:00,
2013-02-05 17:33:00,26.4,18.0,29.77,NE,45,0.0,6.0,70,0.00,,SKC,0.01,VWS V14.01,2013-02-05 22:33:00,
2013-02-05 17:38:00,26.4,17.6,29.77,NE,45,0.0,6.0,69,0.00,,SKC,0.01,VWS V14.01,2013-02-05 22:38:00,
2013-02-05 17:43:00,26.4,17.6,29.77,NE,45,0.0,6.0,69,0.00,,SKC,0.01,VWS V14.01,2013-02-05 22:43:00,
2013-02-05 17:48:00,26.3,17.5,29.77,NE,45,0.0,6.0,69,0.00,,SKC,0.01,VWS V14.01,2013-02-05 22:48:00,
2013-02-05 17:53:00,26.3,17.5,29.77,NE,45,0.0,6.0,69,0.00,,SKC,0.01,VWS V14.01,2013-02-05 22:53:00,
2013-02-05 17:59:00,26.3,17.5,29.77,NE,45,0.0,6.0,69,0.00,,SKC,0.01,VWS V14.01,2013-02-05 22:59:00,
2013-02-05 18:00:00,26.3,17.5,29.78,NE,45,0.0,6.0,69,0.00,,SKC,0.01,VWS V14.01,2013-02-05 23:00:00,
2013-02-05 18:04:00,26.3,17.5,29.78,NE,45,1.0,4.0,69,0.00,,SKC,0.01,VWS V14.01,2013-02-05 23:04:00,
2013-02-05 18:09:00,26.4,18.0,29.78,NE,45,0.0,4.0,70,0.00,,SKC,0.01,VWS V14.01,2013-02-05 23:09:00,
2013-02-05 18:14:00,26.6,18.1,29.78,NE,45,0.0,4.0,70,0.00,,SKC,0.01,VWS V14.01,2013-02-05 23:14:00,
2013-02-05 18:19:00,26.6,18.1,29.78,NE,45,1.0,4.0,70,0.00,,SKC,0.01,VWS V14.01,2013-02-05 23:19:00,
2013-02-05 18:24:00,26.6,18.1,29.78,NE,45,0.0,4.0,70,0.00,,SKC,0.01,VWS V14.01,2013-02-05 23:24:00,
2013-02-05 18:30:00,26.6,18.1,29.79,NE,45,0.0,4.0,70,0.00,,SKC,0.01,VWS V14.01,2013-02-05 23:30:00,
2013-02-05 18:35:00,26.6,18.1,29.79,NE,45,0.0,4.0,70,0.00,,SKC,0.01,VWS V14.01,2013-02-05 23:35:00,
2013-02-05 18:40:00,26.6,18.1,29.79,NE,45,0.0,4.0,70,0.00,,SKC,0.01,VWS V14.01,2013-02-05 23:40:00,
2013-02-05 18:45:00,26.6,18.1,29.79,NE,45,0.0,4.0,70,0.00,,SKC,0.01,VWS V14.01,2013-02-05 23:45:00,
2013-02-05 18:50:00,26.6,18.1,29.79,NE,45,0.0,4.0,70,0.00,,SKC,0.01,VWS V14.01,2013-02-05 23:50:00,
2013-02-05 18:55:00,26.7,17.9,29.79,NE,45,0.0,4.0,69,0.00,,SKC,0.01,VWS V14.01,2013-02-05 23:55:00,
2013-02-05 19:00:00,26.7,17.9,29.79,NE,45,3.0,3.0,69,0.00,,SKC,0.01,VWS V14.01,2013-02-06 00:00:00,
2013-02-05 19:06:00,26.7,17.9,29.79,NE,45,0.0,3.0,69,0.00,,SKC,0.01,VWS V14.01,2013-02-06 00:06:00,
2013-02-05 19:11:00,26.6,17.8,29.79,NE,45,0.0,3.0,69,0.00,,SKC,0.01,VWS V14.01,2013-02-06 00:11:00,
2013-02-05 19:16:00,26.6,17.8,29.80,NE,45,2.0,5.0,69,0.00,,SKC,0.01,VWS V14.01,2013-02-06 00:16:00,
2013-02-05 19:21:00,26.6,17.8,29.80,NW,313,0.0,6.0,69,0.00,,SKC,0.01,VWS V14.01,2013-02-06 00:21:00,
2013-02-05 19:26:00,26.6,18.1,29.80,NW,313,0.0,6.0,70,0.00,,SKC,0.01,VWS V14.01,2013-02-06 00:26:00,
2013-02-05 19:31:00,26.6,18.1,29.80,NW,313,0.0,6.0,70,0.00,,SKC,0.01,VWS V14.01,2013-02-06 00:31:00,
2013-02-05 19:36:00,26.6,18.8,29.80,NW,313,0.0,6.0,72,0.00,,SKC,0.01,VWS V14.01,2013-02-06 00:36:00,
2013-02-05 19:41:00,26.6,18.8,29.80,NW,326,5.0,6.0,72,0.00,,SKC,0.01,VWS V14.01,2013-02-06 00:41:00,
2013-02-05 19:46:00,26.4,19.6,29.81,North,355,2.0,9.0,75,0.00,,SKC,0.01,VWS V14.01,2013-02-06 00:46:00,
2013-02-05 19:51:00,26.3,19.8,29.81,WNW,302,4.0,9.0,76,0.00,,SKC,0.01,VWS V14.01,2013-02-06 00:51:00,
2013-02-05 19:56:00,26.1,20.2,29.81,WNW,302,3.0,9.0,78,0.00,,SKC,0.01,VWS V14.01,2013-02-06 00:56:00,
2013-02-05 20:00:00,26.1,20.5,29.81,WNW,302,0.0,9.0,79,0.00,,SKC,0.01,VWS V14.01,2013-02-06 01:00:00,
2013-02-05 20:01:00,26.0,20.4,29.81,WNW,302,0.0,0.0,79,0.00,,SKC,0.01,VWS V14.01,2013-02-06 01:01:00,
2013-02-05 20:06:00,26.0,20.7,29.81,WNW,302,0.0,0.0,80,0.00,,SKC,0.01,VWS V14.01,2013-02-06 01:06:00,
2013-02-05 20:11:00,25.8,20.8,29.81,WNW,302,0.0,0.0,81,0.00,,SKC,0.01,VWS V14.01,2013-02-06 01:11:00,
2013-02-05 20:16:00,25.8,21.1,29.81,WNW,302,0.0,0.0,82,0.00,,SKC,0.01,VWS V14.01,2013-02-06 01:16:00,
2013-02-05 20:21:00,25.8,21.1,29.81,WNW,302,0.0,0.0,82,0.00,,SKC,0.01,VWS V14.01,2013-02-06 01:21:00,
2013-02-05 20:27:00,25.7,21.3,29.81,WNW,302,0.0,0.0,83,0.00,,SKC,0.01,VWS V14.01,2013-02-06 01:27:00,
2013-02-05 20:32:00,25.7,21.3,29.81,WNW,302,0.0,0.0,83,0.00,,SKC,0.01,VWS V14.01,2013-02-06 01:32:00,
2013-02-05 20:37:00,25.7,21.5,29.81,WNW,302,0.0,0.0,84,0.00,,SKC,0.01,VWS V14.01,2013-02-06 01:37:00,
2013-02-05 20:42:00,25.7,21.5,29.81,WNW,302,0.0,0.0,84,0.00,,SKC,0.01,VWS V14.01,2013-02-06 01:42:00,
2013-02-05 20:47:00,25.7,21.5,29.83,WNW,302,0.0,0.0,84,0.00,,SKC,0.01,VWS V14.01,2013-02-06 01:47:00,
2013-02-05 20:52:00,25.7,21.5,29.83,WNW,302,0.0,0.0,84,0.00,,SKC,0.01,VWS V14.01,2013-02-06 01:52:00,
2013-02-05 20:57:00,25.7,21.8,29.83,WNW,302,0.0,0.0,85,0.00,,SKC,0.01,VWS V14.01,2013-02-06 01:57:00,
2013-02-05 21:00:00,25.7,21.8,29.83,WNW,302,0.0,0.0,85,0.00,,SKC,0.01,VWS V14.01,2013-02-06 02:00:00,
2013-02-05 21:02:00,25.7,21.8,29.83,WNW,302,0.0,0.0,85,0.00,,SKC,0.01,VWS V14.01,2013-02-06 02:02:00,
2013-02-05 21:07:00,25.7,21.8,29.83,WNW,302,0.0,0.0,85,0.00,,SKC,0.01,VWS V14.01,2013-02-06 02:07:00,
2013-02-05 21:12:00,25.7,21.8,29.83,WNW,302,0.0,0.0,85,0.00,,SKC,0.01,VWS V14.01,2013-02-06 02:12:00,
2013-02-05 21:17:00,25.7,21.8,29.83,WNW,302,0.0,0.0,85,0.00,,SKC,0.01,VWS V14.01,2013-02-06 02:17:00,
2013-02-05 21:22:00,25.7,21.8,29.83,WNW,302,0.0,0.0,85,0.00,,SKC,0.01,VWS V14.01,2013-02-06 02:22:00,
2013-02-05 21:28:00,25.7,21.8,29.83,WNW,302,0.0,0.0,85,0.00,,SKC,0.01,VWS V14.01,2013-02-06 02:28:00,
2013-02-05 21:33:00,25.7,21.8,29.83,WNW,302,0.0,0.0,85,0.00,,SKC,0.01,VWS V14.01,2013-02-06 02:33:00,
2013-02-05 21:38:00,25.7,22.1,29.83,WNW,302,0.0,0.0,86,0.00,,SKC,0.01,VWS V14.01,2013-02-06 02:38:00,
2013-02-05 21:43:00,25.7,22.1,29.83,WNW,302,0.0,0.0,86,0.00,,SKC,0.01,VWS V14.01,2013-02-06 02:43:00,
2013-02-05 21:48:00,25.8,22.2,29.84,WNW,302,0.0,1.0,86,0.00,,SKC,0.01,VWS V14.01,2013-02-06 02:48:00,
2013-02-05 21:53:00,25.8,22.2,29.84,WNW,302,0.0,1.0,86,0.00,,SKC,0.01,VWS V14.01,2013-02-06 02:53:00,
2013-02-05 21:58:00,25.8,22.2,29.84,WNW,302,0.0,1.0,86,0.00,,SKC,0.01,VWS V14.01,2013-02-06 02:58:00,
2013-02-05 22:00:00,25.8,22.2,29.84,WNW,302,0.0,1.0,86,0.00,,SKC,0.01,VWS V14.01,2013-02-06 03:00:00,
2013-02-05 22:03:00,25.8,22.2,29.84,WNW,302,0.0,0.0,86,0.00,,SKC,0.01,VWS V14.01,2013-02-06 03:03:00,
2013-02-05 22:08:00,25.8,22.2,29.84,WNW,302,0.0,0.0,86,0.00,,SKC,0.01,VWS V14.01,2013-02-06 03:08:00,
2013-02-05 22:13:00,25.8,22.5,29.84,WNW,302,0.0,0.0,87,0.00,,SKC,0.01,VWS V14.01,2013-02-06 03:13:00,
2013-02-05 22:18:00,25.8,22.5,29.83,WNW,302,0.0,0.0,87,0.00,,SKC,0.01,VWS V14.01,2013-02-06 03:18:00,
2013-02-05 22:23:00,25.8,22.5,29.83,WNW,302,0.0,0.0,87,0.00,,SKC,0.01,VWS V14.01,2013-02-06 03:23:00,
2013-02-05 22:28:00,25.8,22.5,29.83,WNW,302,0.0,0.0,87,0.00,,SKC,0.01,VWS V14.01,2013-02-06 03:28:00,
2013-02-05 22:33:00,25.8,22.5,29.84,WNW,302,0.0,0.0,87,0.00,,SKC,0.01,VWS V14.01,2013-02-06 03:33:00,
2013-02-05 23:00:00,25.8,22.7,29.85,WNW,292,0.0,2.0,88,0.00,,SKC,0.01,VWS V14.01,2013-02-06 04:00:00,